SAPPHIRE 1 39088U 13009C 26038.49032079 .00000250 00000+0 10248-3 0 9998 2 39088 98.4188 221.0459 0010082 275.7975 84.2061 14.35195039677971 PRAETORIAN SDA_602 1 65565U 25203A 26037.63911574 -.00000036 00000+0 -42359-4 0 9990 2 65565 81.3045 131.7038 0006229 180.0489 180.0668 13.84535684 20639 PRAETORIAN SDA_603 1 65566U 25203B 26036.76528942 .00000272 00000+0 22961-3 0 9993 2 65566 81.3046 132.3521 0010146 183.8370 176.2711 13.85197907 20525 PRAETORIAN SDA_604 1 65567U 25203C 26038.36632471 .00013939 00000+0 12439-1 0 9996 2 65567 81.3063 131.0808 0006663 178.9980 181.1191 13.84363208 20738 PRAETORIAN SDA_605 1 65568U 25203D 26037.72264774 -.00092605 00000+0 -83046-1 0 9994 2 65568 81.2979 131.4815 0009339 185.8517 174.2532 13.84916759 20650 PRAETORIAN SDA_606 1 65569U 25203E 26037.99288789 -.00008856 00000+0 -79239-2 0 9991 2 65569 81.3063 131.3969 0006600 182.5939 177.5184 13.84507011 20684 PRAETORIAN SDA_607 1 65570U 25203F 26037.64581755 .00000140 00000+0 11258-3 0 9998 2 65570 81.3055 131.5735 0009670 179.5897 180.5270 13.85141700 20645 PRAETORIAN SDA_608 1 65571U 25203G 26037.21388554 -.00000089 00000+0 -89799-4 0 9994 2 65571 81.3019 132.0753 0006466 185.6996 174.4088 13.84472193 20573 PRAETORIAN SDA_609 1 65572U 25203H 26037.69448635 -.00000563 00000+0 -51113-3 0 9999 2 65572 81.3058 131.6441 0007444 179.1885 180.9286 13.84739402 20647 PRAETORIAN SDA_610 1 65573U 25203J 26038.35800538 -.00000670 00000+0 -60761-3 0 9996 2 65573 81.3015 130.9889 0007020 179.4254 180.6912 13.84600548 20733 PRAETORIAN SDA_611 1 65574U 25203K 26038.37726111 .00000108 00000+0 86006-4 0 9998 2 65574 81.3025 131.0231 0006418 186.3127 173.7950 13.84442282 20738 PRAETORIAN SDA_612 1 65575U 25203L 26038.37655792 -.00000780 00000+0 -69991-3 0 9996 2 65575 81.3047 130.9122 0009783 178.8286 181.2895 13.85108284 20745 PRAETORIAN SDA_613 1 65576U 25203M 26038.34927705 -.00030992 00000+0 -27808-1 0 9997 2 65576 81.3010 130.9779 0006831 175.6683 184.4534 13.84450715 20733 PRAETORIAN SDA_614 1 65577U 25203N 26038.34081410 -.00000232 00000+0 -21672-3 0 9991 2 65577 81.3025 130.9900 0007616 176.7924 183.3283 13.84804289 20747 PRAETORIAN SDA_615 1 65578U 25203P 26038.21807846 -.00005199 00000+0 -46009-2 0 9994 2 65578 81.3021 130.9906 0010250 179.9223 180.1937 13.85167004 20722 PRAETORIAN SDA_616 1 65579U 25203Q 26038.37492917 .00000743 00000+0 65515-3 0 9993 2 65579 81.3069 131.0908 0005810 189.5003 170.6044 13.84273955 20734 PRAETORIAN SDA_617 1 65580U 25203R 26036.65359230 -.00024220 00000+0 -21579-1 0 9992 2 65580 81.3045 132.5327 0008489 178.7203 181.3977 13.84810269 20502 PRAETORIAN SDA_618 1 65581U 25203S 26038.35758280 .00000108 00000+0 84758-4 0 9998 2 65581 81.3038 130.8595 0010270 179.4834 180.6336 13.85300954 20745 PRAETORIAN SDA_619 1 65582U 25203T 26037.66799308 -.00000126 00000+0 -12174-3 0 9992 2 65582 81.3056 131.6031 0008729 178.5305 181.5879 13.84962952 21271 PRAETORIAN SDA_620 1 65583U 25203U 26034.71003830 -.00000238 00000+0 -22202-3 0 9991 2 65583 81.3050 134.3333 0008355 184.6578 175.4503 13.84896353 20238 PRAETORIAN SDA_621 1 65584U 25203V 26038.45421449 .00000293 00000+0 24936-3 0 9992 2 65584 81.3035 130.8229 0008509 174.6380 185.4869 13.84805653 20754 PRAETORIAN SDA_601 1 65585U 25203W 26038.38501081 -.00000032 00000+0 -39353-4 0 9999 2 65585 81.3047 131.0768 0005809 187.3408 172.7664 13.84200868 20738